[[{"header":{"parameterUnit":"m.s-1","parameterCategory":1,"la1":30.2991,"la2":30.254,"lo1":-89.0895,"lo2":-89.0444,"dy":0.0017,"dx":0.0017,"nx":28,"ny":28,"refTime":"2025-11-21T09:00:00:Z","depth":0,"parameterNumber":2,"parameterNumberName":"U-component_of_WINDS"},"data":[0,0,0,0,0,0,0,0,0,0,0,0,0,0,0,0,0,0,0,0,0,0,0,0,0,0,0,0,0,0,0,0,0,0,0,0,0,0,0,0,0,0,0,0,0,0,0,0,0,0,0,0,0,0,0,0,0,0,-0.6205,-0.6205,0,-0.6217,-0.6217,-0.6218,-0.625,-0.6251,-0.6252,-0.6252,-0.6262,-0.6262,-0.6262,0,0,0,0,0,0,0,0,0,0,0,0,0,-0.6209,-0.6209,-0.6205,-0.6205,-0.6206,-0.6217,-0.6217,-0.6218,-0.625,-0.6251,-0.6252,-0.6253,-0.6262,-0.6262,-0.6262,0,0,0,0,0,0,0,0,0,0,0,0,0,-0.6213,-0.6209,-0.6205,-0.6223,-0.6225,-0.6217,-0.6217,-0.6218,-0.625,-0.6251,-0.6252,-0.6253,-0.6263,-0.6262,-0.6261,-0.6237,0,0,-0.626,-0.6259,0,0,0,0,0,0,0,0,-0.6213,-0.6213,-0.622,-0.6222,-0.6224,-0.6233,-0.6223,-0.6224,-0.625,-0.624,-0.6252,-0.6254,-0.6252,-0.6252,-0.6252,-0.6237,-0.6237,-0.626,-0.6259,-0.6259,-0.6259,0,0,0,0,0,0,0,-0.6212,-0.6212,-0.621,-0.622,-0.6223,-0.623,-0.6232,-0.6223,-0.624,-0.6241,-0.6244,-0.6245,-0.6253,-0.6252,-0.6252,-0.6238,-0.626,-0.6259,-0.6259,-0.6259,-0.6203,-0.6202,0,0,0,0,0,0,-0.621,-0.6212,-0.621,-0.621,-0.6221,-0.6229,-0.6231,-0.6229,-0.624,-0.6243,-0.6244,-0.6246,-0.6253,-0.6253,-0.6253,-0.6224,-0.6259,-0.6258,-0.6258,-0.6204,-0.6203,-0.6202,0,0,0,0,0,0,-0.621,-0.6209,-0.6209,-0.6212,-0.6212,-0.6228,-0.6226,-0.6229,-0.6229,-0.6242,-0.6245,-0.624,-0.6254,-0.6254,-0.6241,-0.6225,-0.6258,-0.6258,-0.6206,-0.6204,-0.6203,-0.6167,0,0,0,0,0,0,-0.621,-0.6209,-0.62,-0.6211,-0.6212,-0.6197,-0.6225,-0.6228,-0.6228,-0.6231,-0.624,-0.6242,-0.6255,-0.6241,-0.624,-0.6225,-0.6257,-0.6207,-0.6205,-0.6203,-0.617,-0.6164,-0.616,0,0,0,0,0,-0.621,-0.6189,-0.6199,-0.6199,-0.6201,-0.6196,-0.6196,-0.6212,-0.6226,-0.6217,-0.6226,-0.6242,-0.6227,-0.624,-0.6239,-0.6223,-0.6208,-0.6206,-0.6203,-0.6172,-0.6165,-0.616,0,0,0,0,0,0,-0.6174,-0.6191,-0.6202,-0.6185,-0.6189,-0.6201,-0.619,-0.6204,-0.6204,-0.6207,-0.6226,-0.6227,-0.6211,-0.6216,-0.623,-0.62,-0.622,-0.6218,-0.6197,-0.6191,-0.6186,-0.6185,-0.6257,0,0,0,0,0,-0.6164,-0.6159,-0.6174,-0.6157,-0.6159,-0.6174,-0.6172,-0.6184,-0.6189,-0.619,-0.6198,-0.6202,-0.6198,-0.6195,-0.6192,-0.6171,-0.6173,-0.616,-0.6155,-0.6151,-0.6148,-0.6137,-0.6131,-0.6194,-0.6194,-0.6194,0,0,-0.6144,-0.6152,-0.6148,-0.615,-0.6155,-0.6148,-0.6175,-0.6167,-0.6163,-0.6189,-0.6177,-0.6183,-0.6188,-0.6171,-0.6164,-0.6174,-0.6131,-0.6148,-0.6144,-0.6144,-0.6134,-0.6128,-0.6123,-0.6192,-0.6192,-0.6193,0,0,-0.6103,-0.6109,-0.6096,-0.61,-0.6107,-0.6118,-0.6115,-0.6125,-0.6131,-0.6119,-0.6139,-0.6134,-0.6127,-0.613,-0.6131,-0.6092,-0.6107,-0.6091,-0.6065,-0.6054,-0.6049,-0.6045,-0.6031,-0.6025,-0.6088,-0.6088,-0.6088,0,-0.6076,-0.6068,-0.6087,-0.6078,-0.6078,-0.6103,-0.609,-0.6093,-0.6098,-0.6097,-0.611,-0.6102,-0.6108,-0.6091,-0.6082,-0.6082,-0.6079,-0.6089,-0.6049,-0.6044,-0.6041,-0.6027,-0.6022,-0.6086,-0.6086,-0.6087,-0.6087,0,-0.6035,-0.6029,-0.6017,-0.6023,-0.6022,-0.6011,-0.6027,-0.6024,-0.6037,-0.6046,-0.6034,-0.6042,-0.6041,-0.6039,-0.605,-0.6024,-0.603,-0.6045,-0.6066,-0.6032,-0.602,-0.6015,-0.6083,-0.6084,-0.6085,-0.6085,0,0,-0.597,-0.5987,-0.5982,-0.5985,-0.5996,-0.5991,-0.5981,-0.5982,-0.5979,-0.5982,-0.5974,-0.5968,-0.5982,-0.5983,-0.5995,-0.5986,-0.5955,-0.6002,-0.6003,-0.5992,-0.5926,-0.5914,-0.5908,-0.5965,-0.5964,-0.5964,-0.5926,0,-0.5931,-0.5915,-0.5932,-0.5913,-0.5908,-0.5932,-0.5923,-0.5928,-0.5937,-0.5934,-0.5944,-0.5939,-0.5959,-0.5959,-0.5951,-0.596,-0.5942,-0.5963,-0.5957,-0.5956,-0.5954,-0.5902,-0.5889,-0.5852,-0.5921,-0.592,-0.592,0,-0.5883,-0.5885,-0.5865,-0.5877,-0.5876,-0.5867,-0.5869,-0.5866,-0.5873,-0.588,-0.5881,-0.5897,-0.5887,-0.5909,-0.5896,-0.5911,-0.5909,-0.5914,-0.5913,-0.5912,-0.5935,-0.5898,-0.5841,-0.5835,-0.5912,-0.5913,-0.5913,0,-0.5837,-0.5835,-0.5823,-0.5824,-0.5838,-0.5832,-0.5838,-0.5845,-0.5845,-0.5846,-0.5846,-0.5847,-0.5846,-0.5846,-0.5861,-0.5876,-0.5847,-0.5869,-0.5852,-0.5851,-0.5843,-0.5843,-0.5784,-0.5844,-0.5844,-0.5844,-0.5844,0,-0.5791,-0.5777,-0.5802,-0.5794,-0.578,-0.5801,-0.5786,-0.5794,-0.5801,-0.5795,-0.5816,-0.581,-0.5831,-0.5827,-0.5839,-0.5826,-0.5826,-0.5831,-0.5834,-0.5829,-0.5828,-0.5827,-0.583,-0.5843,-0.5843,-0.5843,-0.5844,0,-0.5736,-0.5752,-0.5741,-0.5755,-0.5759,-0.5748,-0.576,-0.5754,-0.5765,-0.5757,-0.5756,-0.5773,-0.577,-0.5785,-0.5784,-0.5792,-0.5774,-0.5781,-0.5771,-0.5773,-0.5754,-0.5756,-0.5692,-0.5684,-0.575,-0.5749,-0.5748,0,-0.5705,-0.5695,-0.5709,-0.5707,-0.5712,-0.5708,-0.5708,-0.5728,-0.5727,-0.5734,-0.5727,-0.5725,-0.5725,-0.5719,-0.573,-0.573,-0.5737,-0.5715,-0.5737,-0.5732,-0.5736,-0.5736,-0.5735,-0.571,-0.5709,-0.5708,-0.5708,0,-0.5647,-0.5656,-0.5656,-0.5658,-0.5657,-0.566,-0.5663,-0.566,-0.5682,-0.568,-0.5677,-0.5677,-0.5677,-0.5675,-0.5677,-0.5683,-0.5698,-0.5701,-0.5697,-0.569,-0.5685,-0.5687,-0.5758,-0.5702,-0.5703,-0.5703,-0.5703,-0.5704,-0.5603,-0.5596,-0.5605,-0.5604,-0.5609,-0.5612,-0.5607,-0.5618,-0.5616,-0.5618,-0.563,-0.5625,-0.5633,-0.5637,-0.5641,-0.5637,-0.5648,-0.5642,-0.564,-0.5638,-0.5634,-0.5687,-0.5638,-0.5638,-0.5638,-0.5639,-0.5639,0,-0.5546,-0.5554,-0.5552,-0.5558,-0.5557,-0.5573,-0.5579,-0.5576,-0.5572,-0.5578,-0.5578,-0.5575,-0.5574,-0.5586,-0.5587,-0.5581,-0.5588,-0.558,-0.558,-0.5581,-0.5625,-0.5629,-0.5574,-0.5574,-0.5574,-0.5575,-0.5575,-0.5575,-0.5517,-0.5505,-0.5515,-0.5507,-0.5515,-0.5511,-0.5512,-0.5515,-0.552,-0.5516,-0.5516,-0.5524,-0.5533,-0.5534,-0.5534,-0.5538,-0.5536,-0.5525,-0.5531,-0.5572,-0.5578,-0.5584,-0.5587,-0.5525,-0.5525,-0.5488,-0.5487,-0.5487]},{"header":{"parameterUnit":"m.s-1","parameterCategory":1,"la1":30.2991,"la2":30.254,"lo1":-89.0895,"lo2":-89.0444,"dy":0.0017,"dx":0.0017,"nx":28,"ny":28,"refTime":"2025-11-21T09:00:00:Z","depth":0,"parameterNumber":3,"parameterNumberName":"V-component_of_WINDS"},"data":[0,0,0,0,0,0,0,0,0,0,0,0,0,0,0,0,0,0,0,0,0,0,0,0,0,0,0,0,0,0,0,0,0,0,0,0,0,0,0,0,0,0,0,0,0,0,0,0,0,0,0,0,0,0,0,0,0,0,4.0746,4.0747,0,4.0868,4.087,4.0871,4.0876,4.0875,4.0873,4.0872,4.0996,4.1001,4.1005,0,0,0,0,0,0,0,0,0,0,0,0,0,4.0513,4.0518,4.0745,4.0747,4.0748,4.0868,4.087,4.0872,4.0877,4.0875,4.0873,4.0871,4.0995,4.1,4.1006,0,0,0,0,0,0,0,0,0,0,0,0,0,4.0623,4.0519,4.0745,4.0766,4.0769,4.0868,4.087,4.0872,4.0877,4.0875,4.0873,4.0871,4.0993,4.1,4.1007,4.1093,0,0,4.1028,4.1031,0,0,0,0,0,0,0,0,4.0617,4.0631,4.0761,4.0764,4.0768,4.0855,4.0834,4.0946,4.0878,4.0836,4.0872,4.087,4.0951,4.0961,4.0989,4.1099,4.1105,4.1029,4.1033,4.1036,4.1038,0,0,0,0,0,0,0,4.0609,4.0626,4.0794,4.0763,4.0767,4.0768,4.0781,4.0855,4.0904,4.0839,4.084,4.0855,4.0952,4.0982,4.0992,4.1106,4.1028,4.1035,4.1039,4.1042,4.1294,4.1296,0,0,0,0,0,0,4.0598,4.062,4.079,4.0798,4.0685,4.0774,4.0789,4.0829,4.0903,4.0912,4.0856,4.0854,4.0971,4.0984,4.0996,4.1103,4.1036,4.1042,4.1046,4.1292,4.1295,4.1297,0,0,0,0,0,0,4.0593,4.0613,4.0785,4.0709,4.0731,4.078,4.0826,4.0833,4.0863,4.0916,4.0925,4.0878,4.097,4.0986,4.1069,4.1108,4.1046,4.1052,4.1289,4.1292,4.1296,4.1317,0,0,0,0,0,0,4.0586,4.0611,4.0645,4.071,4.0735,4.0857,4.0828,4.0837,4.0875,4.0873,4.0939,4.0947,4.097,4.1059,4.1076,4.1116,4.1057,4.1285,4.129,4.1295,4.1313,4.1321,4.1328,0,0,0,0,0,4.0578,4.0646,4.0647,4.0667,4.0779,4.0859,4.0873,4.0898,4.0878,4.0912,4.0946,4.0945,4.11,4.1067,4.1087,4.1129,4.1283,4.1289,4.1294,4.131,4.132,4.1328,0,0,0,0,0,0,4.0583,4.0654,4.0656,4.0747,4.0797,4.086,4.0904,4.0907,4.0964,4.096,4.0988,4.1002,4.1085,4.1115,4.1077,4.1217,4.1189,4.1199,4.1195,4.1204,4.1211,4.1202,4.1063,0,0,0,0,0,4.0595,4.0655,4.0714,4.0788,4.0813,4.0854,4.089,4.0905,4.0957,4.0978,4.1019,4.1069,4.1129,4.1168,4.1226,4.1317,4.1332,4.1356,4.1364,4.1369,4.1378,4.1428,4.144,4.1316,4.1316,4.1316,0,0,4.062,4.0667,4.0703,4.0791,4.0831,4.0892,4.0872,4.0937,4.0983,4.0988,4.1069,4.11,4.1158,4.1246,4.1286,4.1274,4.1415,4.1377,4.1381,4.1386,4.1435,4.1447,4.1458,4.132,4.1319,4.1318,0,0,4.0698,4.0738,4.0805,4.0846,4.0908,4.0935,4.095,4.1013,4.1034,4.1116,4.1121,4.1175,4.1278,4.1319,4.1354,4.1446,4.1448,4.1464,4.1503,4.1552,4.1562,4.1571,4.1604,4.1616,4.1472,4.1473,4.1473,0,4.0721,4.0814,4.0839,4.0905,4.0943,4.0951,4.1019,4.1057,4.1134,4.1161,4.1145,4.1275,4.1315,4.1412,4.1435,4.1462,4.1481,4.1458,4.1559,4.1568,4.1576,4.1608,4.1621,4.1474,4.1474,4.1474,4.1474,0,4.084,4.0904,4.095,4.1025,4.1069,4.1135,4.117,4.1211,4.1222,4.125,4.1333,4.1381,4.1449,4.1473,4.1484,4.1572,4.1563,4.1553,4.1525,4.1589,4.162,4.1633,4.1477,4.1476,4.1476,4.1475,0,0,4.0924,4.1013,4.1029,4.1063,4.1132,4.1182,4.1248,4.1315,4.135,4.1403,4.1459,4.1546,4.1537,4.1576,4.1592,4.1635,4.1706,4.162,4.1622,4.1635,4.1806,4.1814,4.1828,4.1707,4.1709,4.1711,4.1801,0,4.1009,4.1129,4.1153,4.1256,4.1316,4.1324,4.1382,4.143,4.1458,4.1512,4.1542,4.1604,4.1587,4.1611,4.1654,4.1688,4.1741,4.1682,4.1759,4.1762,4.1745,4.1844,4.1852,4.1935,4.1814,4.1816,4.1817,0,4.1125,4.1181,4.129,4.1351,4.1377,4.1428,4.1492,4.1544,4.1598,4.1615,4.1659,4.167,4.1739,4.1708,4.1803,4.1762,4.1795,4.1817,4.1821,4.1829,4.1794,4.1855,4.1962,4.1975,4.1836,4.1835,4.1833,0,4.1176,4.1279,4.1358,4.1387,4.1459,4.1495,4.1527,4.1579,4.1618,4.1673,4.1699,4.1761,4.1796,4.1843,4.1871,4.1846,4.1964,4.1935,4.1981,4.198,4.2006,4.2004,4.212,4.2026,4.2026,4.2025,4.2025,0,4.1269,4.1335,4.1382,4.143,4.1505,4.1532,4.1605,4.1636,4.1683,4.1737,4.1748,4.1798,4.1831,4.1886,4.1908,4.1984,4.1999,4.2015,4.202,4.2014,4.2013,4.2037,4.2032,4.2029,4.2028,4.2027,4.2027,0,4.1339,4.1373,4.146,4.1521,4.1538,4.1591,4.1643,4.169,4.1718,4.1787,4.1804,4.1848,4.1914,4.1945,4.2027,4.2041,4.2127,4.2128,4.2109,4.2111,4.2155,4.2151,4.2291,4.2311,4.2203,4.2204,4.2205,0,4.1397,4.1448,4.1515,4.1553,4.1586,4.1646,4.1686,4.1714,4.1755,4.1821,4.186,4.1926,4.1981,4.2085,4.2124,4.2186,4.2189,4.2234,4.2198,4.2191,4.219,4.2187,4.2193,4.224,4.2241,4.2242,4.2243,0,4.1495,4.1509,4.1567,4.163,4.1678,4.1729,4.1779,4.1809,4.1846,4.1891,4.1959,4.2001,4.2084,4.215,4.2215,4.2247,4.2251,4.2254,4.2268,4.2263,4.225,4.2258,4.2127,4.2251,4.225,4.2249,4.2249,4.2249,4.1561,4.1607,4.1662,4.1726,4.1767,4.1814,4.1861,4.1895,4.1952,4.2022,4.2035,4.2107,4.216,4.2248,4.2282,4.2338,4.2328,4.2348,4.2353,4.2358,4.236,4.224,4.235,4.235,4.235,4.2349,4.2349,0,4.166,4.1696,4.1754,4.1825,4.1875,4.1875,4.1931,4.1972,4.2036,4.2085,4.2138,4.2216,4.2279,4.2323,4.2387,4.2424,4.2428,4.244,4.2438,4.2445,4.2365,4.2347,4.2436,4.2436,4.2436,4.2436,4.2436,4.2436,4.1718,4.1797,4.1817,4.1916,4.1951,4.2022,4.2054,4.2097,4.2136,4.2223,4.2276,4.2304,4.2351,4.2419,4.2477,4.2488,4.2512,4.2524,4.2535,4.246,4.2451,4.2442,4.2425,4.2529,4.2529,4.2611,4.2611,4.2612]}]]